Theta_e
319 318 319 317 317 317 316 315 316 316 317 317 317 316 313 307 306 304 302 302 301 300 300 300 300 301 304 303 301 301 301 302 304 306 307 307 307 308 306 305 305 305 303 304 303 303 303
317 317 318 319 316 317 317 316 315 315 316 317 318 316 317 316 310 307 305 303 301 300 300 301 301 300 302 301 301 301 301 301 304 306 307 307 307 307 304 302 304 303 303 302 302 302 301
313 312 314 315 315 316 317 319 316 315 315 316 316 319 316 317 317 313 308 304 302 300 300 300 301 300 301 301 301 301 301 301 302 305 306 307 306 305 303 301 302 302 302 300 299 300 301
309 308 310 312 314 314 317 318 316 315 315 315 317 317 317 316 316 317 313 305 302 301 300 300 300 300 301 301 301 301 301 301 303 303 305 305 305 304 303 302 299 299 298 300 298 298 300
303 304 307 309 311 312 313 314 315 316 315 314 315 316 318 316 316 316 317 305 301 301 300 300 300 301 302 301 301 301 301 301 301 304 304 304 303 302 302 300 300 297 300 299 298 297 297
301 302 303 305 307 308 310 312 314 315 314 313 314 315 316 317 315 315 316 305 302 302 302 300 300 300 301 302 301 301 301 301 303 303 304 304 301 295 295 298 302 300 299 298 298 297 296
299 299 300 301 302 304 305 307 311 311 312 312 313 314 314 316 316 315 313 305 302 303 303 301 301 301 303 302 301 301 301 302 303 303 300 300 299 298 298 298 298 297 299 299 297 297 297
299 299 299 299 299 300 301 302 306 309 310 311 312 312 310 314 316 316 312 302 300 301 301 301 301 302 302 301 302 301 301 303 302 300 300 299 298 298 298 299 299 299 298 297 296 296 297
297 298 298 297 297 297 298 299 299 301 303 306 310 309 309 313 314 315 312 306 300 301 299 301 301 301 301 301 301 300 301 302 300 300 300 300 299 298 299 300 298 297 297 297 297 297 298
297 297 297 298 297 296 297 297 297 298 299 300 302 303 305 311 313 314 312 311 303 304 302 304 300 301 300 301 301 300 302 301 299 299 299 300 298 298 299 299 297 298 297 298 298 300 299
296 297 297 296 296 296 296 296 296 296 297 298 299 301 304 309 312 312 312 312 308 306 315 304 299 300 301 300 300 300 301 301 298 299 298 299 297 298 299 299 297 297 298 299 299 300 300
295 296 296 297 297 297 296 296 296 296 296 296 297 299 302 306 309 311 311 309 310 312 314 303 299 301 301 301 300 301 300 300 299 298 296 297 297 297 298 296 296 297 297 298 296 300 296
295 294 294 295 295 296 297 297 296 296 295 295 296 297 301 304 307 309 308 310 311 314 304 302 299 301 301 300 300 301 299 298 298 299 298 298 297 297 296 297 298 296 296 295 298 296 300
293 293 293 293 294 294 295 296 297 296 295 294 294 297 300 304 305 307 308 308 313 301 299 300 300 301 300 300 300 300 299 298 297 299 299 298 300 297 297 296 298 299 296 297 295 298 297
292 291 291 291 292 292 293 294 295 295 296 295 293 294 299 302 305 308 308 311 304 302 305 300 300 300 300 301 300 300 299 299 298 297 302 298 298 295 296 297 298 298 296 294 289 285 294
292 291 290 291 291 291 291 291 293 294 295 296 294 293 297 301 304 307 305 309 304 307 301 301 307 301 304 301 299 300 300 300 300 297 297 298 297 295 298 297 297 299 295 298 294 296 296
292 292 292 292 292 291 291 290 292 293 294 296 294 295 300 302 303 304 307 308 309 306 302 302 300 299 301 298 301 301 302 300 299 297 296 295 299 295 295 296 298 297 296 293 294 295 297
293 291 292 291 291 291 292 291 290 291 293 295 293 296 300 302 302 301 306 305 307 301 301 303 304 306 306 305 303 300 301 299 298 297 298 296 298 296 297 294 295 298 298 295 298 296 292
292 292 291 291 292 291 291 292 291 290 291 293 293 294 295 300 302 302 302 304 303 300 300 302 304 305 303 307 310 302 300 298 298 297 298 297 295 296 303 297 294 297 297 293 287 288 294
291 291 291 291 291 291 291 291 291 291 290 293 294 292 296 298 298 301 301 303 304 301 301 304 304 301 302 304 303 302 301 299 298 297 298 297 298 299 308 305 297 296 297 293 291 292 292
291 291 291 291 291 291 292 291 290 291 291 291 293 293 294 297 297 298 301 302 302 304 300 303 302 304 304 305 303 303 300 299 298 299 296 295 296 294 296 296 296 298 297 295 294 293 300
290 291 291 290 291 291 291 290 290 290 291 290 292 293 295 295 294 295 298 300 303 302 300 300 304 303 303 303 304 303 302 300 301 297 296 295 298 296 298 295 294 295 296 296 296 295 293
290 290 290 291 291 291 291 291 290 290 290 291 291 291 291 292 289 292 293 297 299 300 301 302 301 300 302 302 300 300 300 300 299 298 297 296 298 297 300 294 294 297 297 297 295 293 295
290 290 290 290 290 290 290 289 289 290 290 290 290 290 290 291 292 292 293 294 294 294 295 300 301 303 299 301 299 298 296 296 297 295 297 296 296 294 294 298 305 304 298 297 297 298 294
290 290 290 290 290 290 289 288 289 289 290 290 291 291 291 291 292 292 292 293 293 293 293 298 301 303 301 301 300 299 298 298 293 292 294 295 295 293 297 291 299 304 294 295 296 302 297
290 290 290 290 289 290 289 288 288 289 290 290 290 290 290 291 288 291 291 291 292 292 292 297 299 301 301 301 300 300 298 296 294 293 294 292 293 297 287 296 298 304 295 294 294 301 297
290 290 290 290 289 289 289 289 288 288 289 289 290 289 289 289 290 291 290 290 292 293 293 294 296 297 299 299 301 299 298 289 295 294 293 294 293 296 286 291 293 297 293 294 302 307 295
290 290 290 290 289 289 289 289 289 289 289 289 288 288 288 289 290 291 291 292 292 293 292 294 296 296 296 302 302 300 290 290 290 292 295 295 294 289 286 288 297 294 292 298 300 297 297
289 290 290 290 289 290 289 289 289 289 289 289 289 288 288 289 289 290 291 291 292 293 293 293 294 293 296 299 297 294 296 288 291 295 291 297 294 293 292 296 296 295 298 299 299 299 299
Wind_Speed
10 12 12 14 15 15 15 18 16 18 20 20 20 20 21 21 20 20 19 17 15 13 11 5 5 5 3 2 3 4 2 1 4 11 11 9 11 6 6 6 6 4 3 3 2 4 6
14 11 13 13 16 17 15 15 15 16 17 18 20 20 21 22 22 21 21 19 16 13 11 6 5 4 3 2 2 3 1 2 5 11 12 10 7 6 7 4 4 5 3 1 2 1 2
19 19 19 16 20 19 18 16 15 15 16 20 18 20 21 21 23 23 24 21 17 14 11 8 5 4 6 4 2 3 2 4 5 9 10 10 8 5 9 5 5 4 3 1 3 3 1
21 23 17 15 15 14 12 14 13 17 17 18 18 20 21 22 23 25 26 22 19 13 9 7 5 4 3 5 4 2 4 5 6 7 9 9 8 8 3 9 4 3 4 1 0 5 0
14 14 15 18 18 18 19 22 20 15 16 18 19 21 21 20 23 25 27 23 16 9 6 6 5 4 2 3 4 2 4 6 8 8 8 10 5 4 5 5 3 4 2 3 3 3 3
13 12 13 13 18 19 18 15 13 16 16 18 16 19 22 21 22 25 25 22 10 6 4 3 5 3 5 4 4 3 5 9 5 9 6 3 2 3 3 3 4 5 3 3 4 2 2
17 14 14 15 14 15 16 22 21 20 21 18 16 16 21 22 20 23 23 19 6 3 3 5 3 3 4 5 5 5 6 9 8 3 3 1 3 5 5 2 3 6 3 2 2 1 4
20 20 18 17 17 17 18 20 26 26 27 23 19 22 25 23 20 19 18 11 9 8 8 10 13 11 7 5 4 6 8 7 5 4 2 3 4 4 7 4 5 3 2 3 3 0 1
17 18 20 22 20 18 17 17 17 18 20 23 28 26 25 21 16 15 15 13 13 15 2 5 8 6 5 8 4 8 9 7 3 5 5 5 1 6 3 3 3 2 2 1 2 5 1
19 19 18 20 22 24 20 19 19 18 16 18 20 25 21 17 13 6 10 13 12 12 4 4 3 3 5 5 2 5 9 4 3 6 6 2 4 4 2 2 3 2 3 3 3 3 2
19 21 21 20 21 23 24 25 23 20 19 18 17 17 14 11 11 9 9 12 6 4 3 1 2 2 4 3 8 2 5 3 6 5 4 3 7 4 3 1 3 3 3 3 1 2 2
18 18 20 19 18 21 23 22 24 24 24 19 18 19 13 11 11 12 9 5 1 2 7 1 2 2 3 0 1 6 4 4 5 4 4 2 0 1 2 4 3 6 4 4 3 0 3
18 20 19 20 20 18 17 19 22 23 25 26 18 20 15 12 10 8 9 4 2 5 4 4 2 2 1 3 2 3 3 4 5 5 4 1 2 1 2 5 2 2 4 3 5 4 4
19 20 20 21 22 21 20 23 16 22 25 27 24 17 12 11 14 12 12 1 7 4 6 1 1 2 1 2 1 3 2 3 5 3 3 6 4 6 3 1 4 3 5 5 6 2 4
19 20 21 21 22 22 23 23 22 22 23 24 27 21 15 10 12 14 9 4 7 7 5 6 0 5 2 3 3 2 6 4 7 11 8 5 1 1 4 1 1 4 2 4 7 1 3
18 19 20 20 21 21 22 23 22 22 21 21 26 25 18 11 15 17 4 16 7 5 7 4 6 2 5 6 2 3 6 3 3 5 2 5 4 1 3 1 6 2 5 3 2 1 4
22 20 20 21 22 21 22 24 22 22 23 19 21 11 5 10 14 12 11 9 5 8 9 7 8 5 5 6 5 4 3 2 1 3 1 4 3 0 2 7 8 2 0 4 3 3 5
24 23 22 22 22 21 21 23 22 20 20 22 7 3 6 12 7 5 11 6 5 5 4 2 4 4 8 8 5 3 6 4 1 5 6 4 4 4 4 1 0 1 4 5 4 5 1
23 23 24 23 25 23 23 24 23 25 16 24 5 8 19 16 6 11 2 4 4 4 5 6 8 5 2 6 3 7 4 2 2 2 5 4 2 3 2 1 3 4 5 4 4 3 6
24 24 25 26 26 26 24 25 23 24 23 20 6 2 5 20 16 4 14 16 5 6 3 4 4 5 3 4 2 5 6 2 2 1 0 2 2 5 5 3 4 5 6 6 5 3 4
27 27 28 28 26 26 25 24 26 21 20 19 6 5 8 3 7 10 5 4 18 12 4 8 4 7 7 5 4 4 3 2 0 2 2 2 4 1 3 3 2 3 5 12 9 7 8
30 27 29 29 26 27 27 28 25 25 19 23 12 5 5 5 11 10 13 22 16 12 12 5 7 9 10 7 9 9 8 5 5 2 5 1 1 1 3 1 3 4 7 12 16 3 12
31 28 30 28 28 28 28 29 29 26 23 25 21 17 12 14 4 3 4 5 10 12 12 24 16 8 12 8 5 7 8 8 6 8 7 5 5 3 5 2 1 7 12 17 8 6 10
34 31 29 30 30 28 29 30 32 31 31 31 28 19 6 10 9 11 8 7 8 8 11 10 16 16 10 16 19 16 14 9 8 2 3 5 4 1 3 0 4 6 2 6 13 9 15
35 34 33 32 32 26 29 32 28 27 29 31 30 20 8 4 10 11 14 14 18 22 19 23 17 11 23 17 3 5 1 3 0 1 4 2 5 1 2 4 6 8 4 7 8 9 20
36 36 35 33 32 25 26 30 22 19 25 27 28 23 18 5 7 22 14 19 12 9 15 12 13 23 23 3 4 6 6 5 4 3 2 5 4 2 2 4 7 5 3 5 4 5 5
37 37 35 34 34 25 23 24 20 19 26 27 27 22 21 15 23 11 7 11 16 5 3 9 9 9 14 5 3 3 4 1 6 11 6 5 2 7 2 3 8 8 6 9 4 5 1
38 35 33 32 28 22 23 23 21 18 19 21 28 26 29 22 26 19 29 22 8 9 6 6 4 4 0 7 6 5 3 7 4 5 6 8 9 4 3 2 9 13 8 7 5 0 1
36 36 32 31 28 25 27 27 26 27 27 27 32 29 29 26 22 18 29 38 33 20 8 10 11 9 8 3 3 3 2 1 6 4 3 5 7 7 10 8 2 23 8 24 6 5 7
Wind_Direction
312 315 312 324 327 327 332 336 348 354 356 358 0 1 1 355 352 349 345 339 330 324 317 307 292 304 313 255 245 319 296 248 158 165 165 170 171 146 150 153 135 156 186 201 224 260 270
332 336 321 305 311 315 313 319 326 337 343 348 352 358 358 357 352 349 342 337 328 315 310 300 287 282 271 250 244 348 202 180 174 176 185 187 201 186 124 146 156 165 149 238 247 8 289
293 297 309 308 307 306 305 300 310 318 325 332 336 343 347 352 352 349 343 335 326 310 298 281 289 262 254 250 217 13 167 158 163 189 192 199 182 171 142 117 141 123 130 154 36 323 259
292 288 293 306 308 306 302 281 293 305 315 316 327 328 331 335 342 347 344 335 326 318 282 254 279 250 252 209 225 345 162 150 136 147 174 173 163 134 106 128 57 87 67 156 72 356 290
336 325 292 282 285 296 299 303 303 302 306 312 311 321 325 329 333 338 341 336 326 317 288 244 251 229 236 204 210 215 165 157 150 145 135 142 154 107 115 106 46 14 210 212 305 44 321
350 354 351 334 287 285 292 296 306 298 297 308 313 316 317 322 333 334 336 338 317 301 282 246 221 253 220 192 188 170 158 157 141 151 136 160 111 82 48 94 210 189 198 223 244 331 341
347 338 342 344 341 336 315 292 290 297 295 291 299 309 321 321 327 338 342 348 331 274 297 233 244 240 168 190 190 169 165 153 142 167 167 90 108 205 189 176 92 105 108 253 262 320 300
353 357 350 339 338 339 336 315 290 281 279 277 282 292 312 313 315 335 348 11 356 322 305 255 239 238 225 199 178 183 173 160 164 184 148 42 214 150 119 108 103 90 113 247 276 211 303
344 346 345 346 345 331 328 332 335 329 308 293 279 288 296 304 312 321 345 360 351 349 299 270 222 210 199 198 203 170 179 164 127 146 188 165 127 148 122 133 125 116 173 234 269 319 66
340 342 341 340 340 345 346 327 318 325 331 331 317 290 287 292 304 306 329 339 345 1 31 247 222 194 173 169 189 167 171 152 68 172 146 128 146 153 137 168 145 183 117 94 335 17 270
333 340 337 332 328 333 338 338 344 340 320 314 324 323 273 283 287 289 305 320 325 14 304 353 153 152 165 184 142 121 150 135 149 146 133 212 161 156 167 200 179 139 110 96 58 80 8
329 328 330 341 337 332 336 332 336 337 336 321 313 319 298 263 262 279 291 276 23 69 245 311 106 164 121 214 226 135 112 106 105 106 48 95 96 115 107 73 64 139 85 58 51 33 25
332 329 331 319 320 322 329 324 323 329 332 337 317 312 316 243 250 264 248 195 43 224 337 284 142 146 181 169 205 77 152 156 158 132 193 120 177 139 152 103 60 101 74 339 343 6 214
327 331 328 324 330 330 324 332 335 325 328 337 328 307 294 250 240 240 206 101 218 217 232 255 58 55 237 143 62 115 125 239 222 127 119 153 281 171 178 210 168 158 153 157 216 238 278
326 331 329 328 323 323 325 324 328 318 326 328 330 313 293 257 226 233 185 208 212 195 164 160 188 97 321 319 52 145 198 235 209 177 174 148 159 76 30 84 70 187 166 143 103 65 38
316 324 329 331 339 339 334 318 316 319 316 324 328 324 294 236 220 218 207 228 213 174 136 126 188 105 179 169 165 225 182 208 213 195 100 198 92 359 179 121 42 133 140 82 4 158 270
305 309 316 317 321 325 332 331 324 311 320 319 322 317 294 200 217 201 220 224 207 200 166 163 196 152 233 174 147 189 253 297 90 121 66 148 108 131 141 207 175 127 79 54 113 133 177
300 303 304 309 310 316 318 323 326 308 315 318 303 274 315 203 204 210 231 190 196 184 165 180 147 165 191 175 158 219 231 213 149 166 169 195 127 159 208 90 317 191 174 158 131 221 146
299 302 308 309 311 309 308 307 314 320 300 313 241 254 265 223 228 226 251 267 227 172 182 188 197 191 159 163 203 193 207 17 157 204 160 206 235 80 7 27 358 220 188 125 114 98 200
296 297 298 302 298 299 301 300 303 311 319 296 259 269 250 222 246 249 234 240 234 211 203 190 153 101 147 167 203 197 218 64 346 203 333 130 169 172 193 156 123 190 179 168 137 132 180
298 296 301 301 296 296 300 297 291 289 302 292 278 240 209 275 238 261 260 268 227 230 234 167 198 196 188 161 166 218 156 137 287 192 105 174 218 175 254 225 187 204 173 177 200 194 189
296 299 297 298 293 293 293 295 299 286 279 278 253 267 297 255 264 289 274 240 247 232 190 223 236 182 206 177 188 189 160 183 184 160 187 330 319 106 277 217 200 259 225 197 215 235 259
294 292 290 294 292 290 290 291 281 274 262 265 262 242 271 269 205 229 236 351 280 267 233 225 200 179 213 218 161 103 134 143 149 152 155 156 155 131 261 44 299 291 229 199 195 208 195
295 295 296 295 292 287 291 288 282 267 253 252 252 278 253 275 237 234 234 231 298 305 321 243 214 195 149 155 114 97 88 104 125 87 116 139 127 111 216 91 258 247 148 193 207 232 211
292 290 292 291 290 286 286 292 292 260 252 244 252 246 237 249 231 257 257 256 255 274 296 274 220 211 170 137 121 125 94 151 140 45 149 187 124 158 183 204 298 290 196 156 171 271 206
289 287 286 287 290 281 283 290 295 262 242 242 255 261 247 279 227 244 238 248 256 258 297 259 188 174 160 138 169 173 187 164 181 89 76 96 74 126 143 181 216 239 166 174 167 297 195
289 288 282 283 285 276 274 280 284 272 243 248 260 257 267 269 269 268 226 242 230 211 257 317 141 197 180 148 165 156 209 193 167 166 167 133 120 195 187 242 285 239 159 151 100 237 148
287 285 281 280 285 269 270 268 270 270 260 256 261 259 255 257 270 253 242 226 205 203 197 285 298 182 136 187 185 192 146 211 116 158 180 162 152 177 118 115 265 150 101 184 207 98 211
292 284 278 277 274 265 265 262 262 263 265 261 260 255 253 249 262 275 260 237 240 243 241 229 270 328 232 155 195 133 138 163 151 202 159 209 179 178 190 206 256 191 206 211 193 266 262